When you browse on this site, cookies collect data to enhance your experience and personalize the content and advertising you see.
Visit our Privacy Policy to learn more. By continuing to use the site, you agree to this use of cookies and data.
  • In Hungary
  • List of Countries
  • For 7 days
  • Water Temperature
  • Weather Map
  • News
  • Weather Widgets
  • user-avatar
    Login

    Hourly Weather Aleshkino

    Today, 26 January, Sunday

    Time Temperature Precipitation Wind Pressure Humidity
    00:00 -4°C° 0.2 mm 9 mps 734 mmHg 95%
    01:00 -4°C° 0.1 mm 9 mps 734 mmHg 91%
    02:00 -5°C° 0.1 mm 9 mps 734 mmHg 87%
    03:00 -6°C° 0.1 mm 9 mps 735 mmHg 82%
    04:00 -6°C° 0 mm 9 mps 735 mmHg 84%
    05:00 -8°C° 0 mm 9 mps 736 mmHg 85%
    06:00 -8°C° 0 mm 9 mps 737 mmHg 87%
    07:00 -8°C° 0 mm 9 mps 737 mmHg 86%
    08:00 -8°C° 0 mm 9 mps 738 mmHg 86%
    09:00 -8°C° 0 mm 9 mps 739 mmHg 86%
    10:00 -8°C° 0 mm 9 mps 740 mmHg 85%
    11:00 -8°C° 0 mm 10 mps 741 mmHg 84%
    12:00 -8°C° 0 mm 10 mps 742 mmHg 83%
    13:00 -8°C° 0 mm 9 mps 742 mmHg 83%
    14:00 -8°C° 0 mm 9 mps 743 mmHg 83%
    15:00 -7°C° 0 mm 8 mps 744 mmHg 83%
    16:00 -8°C° 0 mm 8 mps 745 mmHg 84%
    17:00 -8°C° 0 mm 7 mps 746 mmHg 85%
    18:00 -9°C° 0 mm 7 mps 747 mmHg 85%
    19:00 -9°C° 0 mm 6 mps 747 mmHg 86%
    20:00 -10°C° 0 mm 6 mps 747 mmHg 88%
    21:00 -10°C° 0 mm 5 mps 748 mmHg 89%
    22:00 -10°C° 0 mm 5 mps 748 mmHg 90%
    23:00 -10°C° 0 mm 5 mps 748 mmHg 91%

    Tomorrow, 27 January, Monday

    Time Temperature Precipitation Wind Pressure Humidity
    00:00 -9°C° 0 mm 4 mps 747 mmHg 92%
    01:00 -10°C° 0 mm 5 mps 747 mmHg 91%
    02:00 -10°C° 0 mm 5 mps 747 mmHg 90%
    03:00 -9°C° 0 mm 6 mps 746 mmHg 89%
    04:00 -9°C° 0 mm 6 mps 746 mmHg 89%
    05:00 -8°C° 0 mm 7 mps 745 mmHg 90%
    06:00 -8°C° 0 mm 8 mps 745 mmHg 90%
    07:00 -7°C° 0 mm 8 mps 745 mmHg 91%
    08:00 -6°C° 0 mm 8 mps 744 mmHg 91%
    09:00 -5°C° 0 mm 8 mps 744 mmHg 91%
    10:00 -4°C° 0 mm 8 mps 744 mmHg 91%
    11:00 -4°C° 0 mm 9 mps 745 mmHg 91%
    12:00 -3°C° 0 mm 9 mps 745 mmHg 91%
    13:00 -2°C° 0.1 mm 8 mps 745 mmHg 93%
    14:00 -2°C° 0.1 mm 7 mps 746 mmHg 95%
    15:00 -2°C° 0.1 mm 7 mps 746 mmHg 97%
    16:00 -2°C° 0 mm 6 mps 747 mmHg 94%
    17:00 -2°C° 0 mm 5 mps 748 mmHg 91%
    18:00 -3°C° 0 mm 4 mps 748 mmHg 88%
    19:00 -5°C° 0 mm 3 mps 749 mmHg 88%
    20:00 -7°C° 0 mm 3 mps 750 mmHg 89%
    21:00 -8°C° 0 mm 2 mps 751 mmHg 89%
    22:00 -9°C° 0 mm 2 mps 751 mmHg 87%
    23:00 -9°C° 0 mm 2 mps 752 mmHg 85%

    Day after tomorrow, 28 January, Tuesday

    Time Temperature Precipitation Wind Pressure Humidity
    00:00 -9°C° 0 mm 1 mps 752 mmHg 82%
    01:00 -9°C° 0 mm 1 mps 752 mmHg 82%
    02:00 -10°C° 0 mm 2 mps 753 mmHg 83%
    03:00 -10°C° 0 mm 2 mps 753 mmHg 83%
    04:00 -10°C° 0.1 mm 2 mps 753 mmHg 85%
    05:00 -12°C° 0.1 mm 3 mps 753 mmHg 88%
    06:00 -11°C° 0.1 mm 4 mps 753 mmHg 90%
    07:00 -11°C° 0.4 mm 4 mps 753 mmHg 91%
    08:00 -12°C° 0.4 mm 5 mps 753 mmHg 93%
    09:00 -12°C° 0.4 mm 5 mps 753 mmHg 94%
    10:00 -11°C° 0.3 mm 5 mps 753 mmHg 94%
    11:00 -11°C° 0.3 mm 5 mps 753 mmHg 94%
    12:00 -11°C° 0.3 mm 6 mps 753 mmHg 94%
    13:00 -10°C° 0.2 mm 5 mps 753 mmHg 94%
    14:00 -10°C° 0.2 mm 5 mps 753 mmHg 94%
    15:00 -10°C° 0.2 mm 5 mps 752 mmHg 94%
    16:00 -8°C° 0.1 mm 4 mps 752 mmHg 95%
    17:00 -8°C° 0.1 mm 4 mps 752 mmHg 95%
    18:00 -8°C° 0.1 mm 4 mps 752 mmHg 95%
    19:00 -7°C° 0.1 mm 4 mps 752 mmHg 96%
    20:00 -7°C° 0.1 mm 4 mps 752 mmHg 96%
    21:00 -5°C° 0.1 mm 3 mps 752 mmHg 96%
    22:00 -5°C° 0.2 mm 4 mps 752 mmHg 96%
    23:00 -4°C° 0.2 mm 4 mps 752 mmHg 96%

    29 January, Wednesday

    Time Temperature Precipitation Wind Pressure Humidity
    00:00 -4°C° 0.2 mm 4 mps 752 mmHg 96%
    01:00 -4°C° 0.2 mm 4 mps 752 mmHg 96%
    02:00 -3°C° 0.2 mm 4 mps 752 mmHg 97%
    03:00 -3°C° 0.2 mm 4 mps 751 mmHg 97%
    04:00 -4°C° 0.3 mm 4 mps 751 mmHg 97%
    05:00 -4°C° 0.3 mm 4 mps 751 mmHg 97%
    06:00 -4°C° 0.3 mm 4 mps 751 mmHg 97%
    07:00 -4°C° 0.4 mm 4 mps 751 mmHg 97%
    08:00 -5°C° 0.4 mm 5 mps 751 mmHg 96%
    09:00 -5°C° 0.4 mm 5 mps 751 mmHg 96%
    10:00 -5°C° 0.3 mm 5 mps 751 mmHg 97%
    11:00 -4°C° 0.3 mm 5 mps 751 mmHg 97%
    12:00 -4°C° 0.3 mm 5 mps 751 mmHg 97%
    13:00 -4°C° 0.3 mm 5 mps 751 mmHg 97%
    14:00 -4°C° 0.3 mm 5 mps 750 mmHg 97%
    15:00 -4°C° 0.3 mm 5 mps 750 mmHg 97%
    16:00 -5°C° 0.3 mm 5 mps 750 mmHg 97%
    17:00 -4°C° 0.3 mm 4 mps 750 mmHg 96%
    18:00 -5°C° 0.3 mm 4 mps 750 mmHg 96%
    19:00 -5°C° 0.1 mm 4 mps 750 mmHg 96%
    20:00 -5°C° 0.1 mm 4 mps 749 mmHg 96%
    21:00 -5°C° 0.1 mm 4 mps 749 mmHg 96%
    22:00 -4°C° 0.4 mm 4 mps 749 mmHg 97%
    23:00 -5°C° 0.4 mm 5 mps 748 mmHg 97%

    30 January, Thursday

    Time Temperature Precipitation Wind Pressure Humidity
    00:00 -4°C° 0.4 mm 5 mps 748 mmHg 97%
    01:00 -4°C° 0.3 mm 5 mps 748 mmHg 97%
    02:00 -3°C° 0.3 mm 6 mps 747 mmHg 98%
    03:00 -2°C° 0.3 mm 6 mps 747 mmHg 98%
    04:00 -3°C° 0.6 mm 6 mps 747 mmHg 98%
    05:00 -3°C° 0.6 mm 6 mps 747 mmHg 98%
    06:00 -3°C° 0.6 mm 6 mps 747 mmHg 98%
    07:00 -3°C° 0.2 mm 6 mps 747 mmHg 98%
    08:00 -2°C° 0.2 mm 7 mps 747 mmHg 97%
    09:00 -2°C° 0.2 mm 7 mps 747 mmHg 97%
    10:00 -2°C° 0.1 mm 7 mps 747 mmHg 97%
    11:00 -2°C° 0.1 mm 7 mps 747 mmHg 98%
    12:00 -2°C° 0.1 mm 7 mps 747 mmHg 98%
    13:00 -2°C° 0.5 mm 6 mps 747 mmHg 98%
    14:00 -2°C° 0.5 mm 6 mps 747 mmHg 99%
    15:00 -1°C° 0.5 mm 5 mps 747 mmHg 99%
    16:00 -1°C° 0.1 mm 5 mps 747 mmHg 98%
    17:00 -1°C° 0.1 mm 5 mps 747 mmHg 98%
    18:00 -1°C° 0.1 mm 4 mps 747 mmHg 98%
    19:00 -2°C° 0.1 mm 4 mps 747 mmHg 97%
    20:00 -2°C° 0.1 mm 4 mps 747 mmHg 97%
    21:00 -2°C° 0.1 mm 4 mps 747 mmHg 97%
    22:00 -2°C° 0.1 mm 4 mps 747 mmHg 97%
    23:00 -2°C° 0.1 mm 5 mps 747 mmHg 97%

    31 January, Friday

    Time Temperature Precipitation Wind Pressure Humidity
    00:00 -2°C° 0.1 mm 5 mps 747 mmHg 97%
    01:00 -3°C° 0.3 mm 4 mps 747 mmHg 97%
    02:00 -3°C° 0.3 mm 4 mps 747 mmHg 97%
    03:00 -3°C° 0.3 mm 4 mps 746 mmHg 98%
    04:00 -3°C° 0.7 mm 4 mps 746 mmHg 97%
    05:00 -3°C° 0.7 mm 4 mps 746 mmHg 97%
    06:00 -5°C° 0.7 mm 5 mps 746 mmHg 97%
    07:00 -5°C° 1.3 mm 5 mps 746 mmHg 97%
    08:00 -4°C° 1.3 mm 4 mps 746 mmHg 97%
    09:00 -4°C° 1.3 mm 4 mps 746 mmHg 97%
    10:00 -4°C° 0.6 mm 4 mps 746 mmHg 97%
    11:00 -4°C° 0.6 mm 5 mps 746 mmHg 97%
    12:00 -4°C° 0.6 mm 5 mps 746 mmHg 97%
    13:00 -3°C° 0.2 mm 4 mps 746 mmHg 97%
    14:00 -2°C° 0.2 mm 4 mps 745 mmHg 97%
    15:00 -2°C° 0.2 mm 4 mps 745 mmHg 97%
    16:00 -2°C° 0 mm 4 mps 746 mmHg 97%
    17:00 -1°C° 0 mm 3 mps 746 mmHg 97%
    18:00 -1°C° 0 mm 3 mps 746 mmHg 97%
    19:00 -1°C° 0 mm 3 mps 746 mmHg 97%
    20:00 -1°C° 0 mm 3 mps 746 mmHg 97%
    21:00 -1°C° 0 mm 2 mps 746 mmHg 97%
    22:00 -1°C° 0 mm 2 mps 747 mmHg 97%
    23:00 -1°C° 0 mm 2 mps 747 mmHg 97%
    Show more